DateTimeUTC,F1_A11,F1_S11,BsB_S11,BsG_S11,BsR_S11,BbsB_S11,BbsG_S11,BbsR_S11,BaB_A11,BaG_A11,BaR_A11,Tu_S11,T_S11,Uu_S11,U_S11,P_S11,T1_A11
2021-07-27T09:00:00Z,00000200,20000000,,,,,,,-000.20,-000.07,-000.17,18.5,25.0,13.4,09.0,0683.7,31.0
2021-07-27T09:01:00Z,00000200,20000000,,,,,,,-000.24,-000.32,-000.19,18.4,25.0,13.4,09.0,0683.7,31.0
2021-07-27T09:02:00Z,00000200,20000000,,,,,,,0000.02,-000.06,-000.13,18.4,25.0,13.3,08.9,0683.7,31.0
2021-07-27T09:03:00Z,00000200,60000000,,,,,,,0001.24,0001.30,0001.34,18.4,25.0,13.3,08.9,0683.7,31.0
2021-07-27T09:04:00Z,00000200,40000000,0010.94,0008.62,0005.34,0000.76,0000.77,0000.80,0002.36,0002.21,0001.26,18.5,24.9,13.3,09.1,0684.7,31.0
2021-07-27T09:05:00Z,00000200,00000000,0011.00,0008.68,0005.76,0001.16,0001.29,0000.77,0001.99,0001.96,0001.75,18.6,24.8,13.4,09.1,0684.7,31.0
2021-07-27T09:06:00Z,00000200,00000000,0011.98,0009.30,0006.03,0001.14,0001.14,0000.69,0002.34,0001.96,0001.87,18.6,24.8,13.3,09.1,0684.8,31.0
2021-07-27T09:07:00Z,00000200,00000000,0011.89,0009.94,0006.29,0000.98,0001.26,0000.51,0002.15,0001.91,0001.30,18.6,24.8,13.4,09.2,0684.8,31.0
2021-07-27T09:08:00Z,00000200,00000000,0013.49,0009.89,0006.89,0001.39,0001.29,0000.92,0002.55,0002.26,0001.89,18.6,24.8,13.3,09.2,0684.8,31.0
2021-07-27T09:09:00Z,00000200,00000000,0012.44,0010.07,0007.09,0001.53,0001.10,0001.12,0002.10,0002.00,0001.74,18.6,24.8,13.4,09.2,0684.8,31.0
2021-07-27T09:10:00Z,00000200,00000000,0012.86,0010.39,0007.13,0001.25,0001.29,0000.68,0002.59,0002.20,0001.54,18.6,24.8,13.3,09.2,0684.8,31.0
2021-07-27T09:11:00Z,00000200,00000000,0014.67,0011.67,0007.60,0001.10,0001.33,0001.09,0002.72,0002.65,0002.11,18.6,24.8,13.4,09.2,0684.8,31.0
2021-07-27T09:12:00Z,00000200,00000000,0014.68,0011.58,0007.91,0001.73,0001.03,0000.99,0002.35,0002.43,0002.06,18.7,24.8,13.4,09.2,0684.8,31.0
2021-07-27T09:13:00Z,00000200,00000000,0014.07,0011.28,0007.29,0001.34,0001.26,0000.70,0003.03,0002.58,0001.77,18.7,24.8,13.3,09.2,0684.8,31.0
2021-07-27T09:14:00Z,00000200,00000000,0014.93,0012.28,0008.14,0001.39,0001.42,0001.27,0002.31,0002.17,0002.06,18.7,24.8,13.3,09.1,0684.8,31.0
2021-07-27T09:15:00Z,00000200,00000000,0015.40,0012.30,0008.86,0001.74,0001.49,0001.27,0002.98,0002.57,0002.10,18.7,24.8,13.3,09.2,0684.9,31.0
2021-07-27T09:16:00Z,00000200,00000000,0016.79,0013.20,0009.48,0002.54,0001.82,0001.13,0003.05,0003.11,0002.28,18.7,24.8,13.4,09.2,0684.9,31.0
2021-07-27T09:17:00Z,00000200,00000000,0016.32,0014.17,0009.34,0001.62,0001.78,0000.93,0002.71,0002.64,0002.17,18.7,24.8,13.4,09.2,0684.9,31.0
2021-07-27T09:18:00Z,00000200,00000000,0015.77,0013.05,0008.85,0001.52,0001.60,0000.74,0003.20,0002.99,0002.22,18.7,24.8,13.3,09.2,0684.9,31.0
2021-07-27T09:19:00Z,00000200,00000000,0017.15,0014.17,0009.89,0001.26,0001.67,0000.97,0002.97,0002.58,0002.11,18.7,24.8,13.3,09.2,0684.9,31.0
2021-07-27T09:20:00Z,00000200,00000000,0016.07,0013.92,0009.41,0001.34,0001.32,0001.25,0003.52,0002.92,0002.48,18.7,24.8,13.3,09.2,0684.9,31.1
2021-07-27T09:21:00Z,00000200,00000000,0016.86,0014.15,0009.61,0002.17,0001.83,0001.33,0003.16,0003.12,0002.53,18.7,24.8,13.2,09.1,0684.9,31.0
2021-07-27T09:22:00Z,00000200,00000000,0017.16,0013.82,0009.08,0002.10,0002.11,0000.64,0002.41,0002.71,0002.34,18.7,24.8,13.3,09.2,0684.9,31.0
2021-07-27T09:23:00Z,00000200,00000000,0016.69,0013.20,0009.39,0001.76,0001.09,0001.29,0003.80,0003.20,0002.49,18.7,24.8,13.3,09.2,0684.9,31.1
2021-07-27T09:24:00Z,00000200,00000000,0017.25,0014.31,0009.56,0002.60,0001.68,0001.19,0003.09,0002.80,0002.06,18.7,24.8,13.3,09.2,0684.8,31.0
2021-07-27T09:25:00Z,00000200,00000000,0017.99,0014.73,0010.36,0001.71,0001.70,0001.30,0002.90,0002.68,0002.73,18.7,24.8,13.4,09.2,0684.8,31.0
2021-07-27T09:26:00Z,00000200,00000000,0016.97,0014.86,0010.79,0001.98,0001.59,0001.09,0003.67,0003.57,0002.48,18.7,24.8,13.4,09.2,0684.8,31.0
2021-07-27T09:27:00Z,00000200,00000000,0018.43,0014.63,0010.52,0001.96,0001.93,0000.99,0003.64,0003.29,0002.52,18.7,24.8,13.3,09.2,0684.8,31.0
2021-07-27T09:28:00Z,00000200,00000000,0017.72,0014.35,0010.12,0001.58,0001.82,0001.28,0003.14,0003.11,0002.38,18.7,24.8,13.3,09.2,0684.8,31.0
2021-07-27T09:29:00Z,00000200,00000000,0017.32,0013.85,0009.87,0001.70,0001.53,0001.02,0003.14,0003.16,0002.43,18.7,24.8,13.4,09.2,0684.9,31.0
2021-07-27T09:30:00Z,00000200,00000000,0017.67,0014.40,0009.93,0002.05,0001.63,0001.03,0003.57,0002.46,0002.82,18.7,24.8,13.3,09.2,0684.9,31.0
2021-07-27T09:31:00Z,00000200,00000000,0017.68,0015.17,0011.06,0002.12,0001.80,0001.33,0003.10,0003.52,0002.36,18.7,24.8,13.4,09.2,0684.9,31.0
2021-07-27T09:32:00Z,00000200,00000000,0018.76,0015.32,0011.01,0001.43,0002.23,0001.41,0003.70,0003.07,0002.47,18.8,24.8,13.3,09.2,0684.9,31.0
2021-07-27T09:33:00Z,00000200,00000000,0017.87,0014.73,0010.44,0001.94,0001.78,0001.11,0003.18,0003.25,0002.78,18.7,24.8,13.4,09.2,0684.9,31.0
2021-07-27T09:34:00Z,00000200,00000000,0017.96,0013.96,0009.77,0001.79,0001.43,0001.12,0002.96,0002.81,0002.07,18.7,24.8,13.3,09.2,0684.9,31.0
2021-07-27T09:35:00Z,00000200,00000000,0016.93,0013.46,0009.53,0001.78,0001.51,0001.19,0003.30,0002.87,0002.60,18.8,24.8,13.4,09.3,0684.9,31.0
2021-07-27T09:36:00Z,00000200,00000000,0016.89,0014.30,0009.54,0002.08,0002.06,0001.22,0003.36,0003.40,0002.70,18.8,24.8,13.3,09.2,0684.9,31.0
2021-07-27T09:37:00Z,00000200,00000000,0017.04,0014.66,0010.16,0001.50,0001.76,0000.94,0003.58,0002.87,0002.17,18.8,24.8,13.4,09.2,0684.9,31.0
2021-07-27T09:38:00Z,00000200,00000000,0018.03,0014.52,0010.49,0001.88,0001.83,0001.17,0003.14,0003.04,0002.84,18.8,24.8,13.3,09.2,0684.9,31.0
2021-07-27T09:39:00Z,00000200,00000000,0017.54,0013.96,0009.89,0002.22,0001.42,0001.00,0003.02,0002.67,0002.25,18.8,24.8,13.3,09.2,0684.9,31.0
2021-07-27T09:40:00Z,00000200,00000000,0017.09,0013.41,0009.46,0001.90,0001.59,0001.23,0003.38,0003.33,0002.46,18.8,24.8,13.4,09.2,0684.9,31.0
2021-07-27T09:41:00Z,00000200,00000000,0017.38,0013.86,0009.88,0001.93,0001.69,0001.54,0003.27,0002.96,0002.02,18.8,24.9,13.3,09.2,0685.0,31.0
2021-07-27T09:42:00Z,00000200,00000000,0017.80,0014.59,0009.60,0002.42,0001.53,0001.20,0003.38,0003.08,0002.82,18.8,24.8,13.3,09.1,0685.0,31.0
2021-07-27T09:43:00Z,00000200,00000000,0018.16,0014.92,0010.10,0002.19,0001.76,0001.24,0003.23,0003.13,0002.31,18.8,24.8,13.4,09.2,0685.0,31.0
2021-07-27T09:44:00Z,00000200,00000000,0017.01,0013.79,0008.87,0001.59,0001.66,0001.04,0003.28,0003.00,0002.33,18.8,24.8,13.4,09.3,0685.0,31.0
2021-07-27T09:45:00Z,00000200,00000000,0017.29,0013.13,0009.61,0002.35,0001.93,0000.95,0003.22,0003.10,0002.65,18.8,24.8,13.3,09.2,0684.9,31.0
2021-07-27T09:46:00Z,00000200,00000000,0016.25,0013.26,0008.89,0001.23,0001.72,0001.47,0003.00,0002.66,0002.62,18.8,24.8,13.3,09.2,0685.0,31.0
2021-07-27T09:47:00Z,00000200,00000000,0016.25,0012.38,0008.76,0001.52,0001.53,0001.17,0002.84,0002.78,0001.83,18.8,24.8,13.2,09.2,0685.0,31.0
2021-07-27T09:48:00Z,00000200,00000000,0016.23,0013.24,0009.33,0002.09,0001.50,0001.19,0003.26,0002.80,0002.16,18.8,24.8,13.3,09.2,0685.0,31.0
2021-07-27T09:49:00Z,00000200,00000000,0016.60,0012.82,0008.68,0002.04,0001.34,0001.06,0002.93,0002.93,0002.12,18.8,24.9,13.3,09.2,0685.0,31.0
2021-07-27T09:50:00Z,00000200,00000000,0016.97,0013.17,0009.45,0001.86,0001.81,0001.03,0003.18,0002.65,0002.38,18.8,24.9,13.3,09.2,0685.0,31.0
2021-07-27T09:51:00Z,00000200,00000000,0015.89,0013.48,0008.57,0001.47,0001.75,0001.32,0003.51,0003.39,0002.87,18.8,24.9,13.3,09.2,0685.0,31.0
2021-07-27T09:52:00Z,00000200,00000000,0015.79,0013.63,0009.07,0002.45,0001.35,0001.00,0003.31,0003.13,0002.17,18.8,24.9,13.3,09.2,0685.0,31.0
2021-07-27T09:53:00Z,00000200,00000000,0015.75,0013.54,0008.82,0001.26,0001.51,0001.13,0003.08,0002.77,0002.53,18.8,24.9,13.3,09.2,0685.1,31.0
2021-07-27T09:54:00Z,00000200,00000000,0015.42,0013.14,0008.76,0001.69,0001.81,0000.92,0003.13,0002.69,0002.32,18.9,24.9,13.2,09.2,0685.0,31.0
2021-07-27T09:55:00Z,00000200,00000000,0015.86,0012.66,0008.30,0001.34,0001.60,0001.07,0002.75,0002.88,0001.93,18.9,24.9,13.2,09.2,0685.1,31.0
2021-07-27T09:56:00Z,00000200,00000000,0015.65,0013.05,0008.57,0002.31,0001.56,0000.87,0003.46,0003.06,0002.65,18.9,24.9,13.3,09.2,0685.1,31.0
2021-07-27T09:57:00Z,00000200,40000000,,,,,,,0000.57,0000.40,0000.42,18.9,24.9,13.6,09.4,0685.1,31.0
2021-07-27T09:58:00Z,00000200,60000000,,,,,,,-000.19,0000.13,0000.21,18.7,25.0,13.4,09.0,0684.0,31.0
2021-07-27T09:59:00Z,00000200,20000000,,,,,,,0000.32,-000.07,-000.55,18.7,25.1,13.3,09.0,0684.1,31.0
